Weather Service Report


114 
ASUS41 KAKQ 071514
RWRAKQ

REGIONAL WEATHER ROUNDUP
NATIONAL WEATHER SERVICE WAKEFIELD VA
1000 AM EST SUN FEB 07 2016

Note: "fair" indicates few or no clouds below 12,000 feet with no
significant weather and/or obstructions to visibility. * = Denotes
station may not report precipitation (e.g., rain,snow,etc.),
thunder or fog.

VAZ042-051-052>054-056-071600-
NORTHERN VIRGINIA
  
CITY           SKY/WX    TMP DP  RH WIND       PRES   REMARKS
WASH NATIONAL  PTSUNNY   36  25  64 N9        30.17F                  
DULLES         PTSUNNY   31  25  78 NW5       30.19R                  
FORT BELVOIR   FAIR      36  23  59 NW3       30.17F                  
QUANTICO       CLOUDY    36  26  67 W3        30.18F                  
FREDERICKSBRG* FAIR      34  27  75 CALM      30.16F                  
STAFFORD*      FAIR      37  27  69 NW6       30.20F                  
WARRENTON      FAIR      32  27  83 CALM      30.18S                  
CULPEPER*      FAIR      30  24  79 CALM      30.19S                  
MANASSAS*      SUNNY     30  28  93 CALM      30.19R                  
LEESBURG*      FAIR      32  28  86 CALM      30.20S                  
WINCHESTER     FAIR      36  27  69 CALM      30.17R                  
FRONT ROYAL*   FAIR      32  25  74 CALM      30.16R                  
LURAY*         FAIR      28  27  93 CALM      30.18R                  
$$

VAZ048-049-060>072-079>083-071600-
CENTRAL AND SOUTH CENTRAL VIRGINIA
  
CITY           SKY/WX    TMP DP  RH WIND       PRES   REMARKS
RICHMOND       CLOUDY    36  26  67 N9        30.13F                  
CHESTERFIELD*  FAIR      37  18  44 N6        30.14F                  
PETERSBURG*    FAIR      38  27  63 N6        30.12F                  
HANOVER        FAIR      36  24  62 N3        30.15F                  
TAPPAHANNOCK*  FAIR      36  29  76 N3        30.16S                  
QUINTON*       FAIR      36  28  72 N3        30.13F                  
CHARLOTTSVILLE FAIR      33  23  66 NW3       30.17R                  
GORDONSVILLE*  FAIR      34  28  79 CALM      30.15F                  
ORANGE*        FAIR      34  25  69 NW6       30.18S                  
LOUISA*        FAIR      34  25  69 N5        30.14S                  
BUMPASS*       FAIR      37  27  67 N3        30.15S                  
FARMVILLE*     FAIR      35  25  68 N3        30.12F                  
CREWE*         FAIR      35  23  61 N3        30.12F                  
FORT PICKETT*  FAIR      35  24  62 N8        30.10F                  
CHASE CITY*    FAIR      36  20  53 N6        30.09F                  
CLARKSVILLE*   FAIR      36  25  64 N7        30.09F                  
SOUTH HILL*    FAIR      36  25  65 N7        30.15F                  
LAWRENCEVILLE* FAIR      36  27  68 CALM      30.11F                  
EMPORIA*       FAIR      36  28  75 N7        30.12F                  
$$

VAZ088>098-071600-
SOUTHEAST VIRGINIA
  
CITY           SKY/WX    TMP DP  RH WIND       PRES   REMARKS
NORFOLK        FAIR      41  28  60 N20       30.08F                  
VIRGINIA BEACH CLOUDY    45  27  49 NE15G28   30.08S                  
NORFOLK NAVAL  CLOUDY    41  25  53 NE17G25   30.10F                  
WEST POINT*    FAIR      37  28  68 N5        30.15F                  
SALUDA*        FAIR      37  30  75 N6        30.13F                  
NEWPORT NEWS   CLOUDY    38  33  82 N8        30.11F                  
LANGLEY AFB    FAIR      40  30  67 NE15      30.09F                  
FORT EUSTIS    CLOUDY    39  29  66 N6        30.09F                  
WILLIAMSBURG*  FAIR      39  32  75 CALM      30.12F                  
HR EXEC AP*    FAIR      41  27  56 NE6G16    30.10F                  
FRANKLIN*      CLOUDY    37  29  72 N9        30.09F                  
US460-WAKEFLD  FAIR      38  28  67 NE6       30.11F                  
$$

VAZ020-022-025-037-045-071600-
WEST CENTRAL AND SOUTHWEST VIRGINIA
  
CITY           SKY/WX    TMP DP  RH WIND       PRES   REMARKS
STAUNTON*      FAIR      32  27  81 W3        30.18R                  
WAYNESBORO*    FAIR      32  22  66 CALM      30.15R                  
HOT SPRINGS VA FAIR      32  19  60 CALM      30.04R                  
LYNCHBURG      FAIR      35  21  56 N5        30.13F                  
DANVILLE       FAIR      39  21  48 NE9       30.10F                  
SOUTH BOSTON*  FAIR      34  24  65 CALM      30.12F                  
MARTINSVILLE   FAIR      34  22  61 N5        30.14F                  
ROANOKE        PTSUNNY   34  21  59 CALM      30.16S                  
BLACKSBURG     FAIR      33  25  72 CALM      30.13F                  
DUBLIN*        FAIR      37  25  61 N3        30.11F                  
MARION*        FAIR      33  22  64 W8        30.12F                  
HILLSVILLE*    FAIR      34  22  60 N13       30.06F WCI  25          
RICHLANDS*     FAIR      36  20  52 CALM      30.12R                  
WISE*          FAIR      37  19  48 NW5       30.12F                  
ABINGDON*      FAIR      36  21  55 SW6       30.13F                  
$$

MDZ021>025-VAZ099-100-071600-
SOUTHERN MARYLAND AND THE DELMARVA PENINSULA
  
CITY           SKY/WX    TMP DP  RH WIND       PRES   REMARKS
PATUXENT RIVER CLOUDY    38  28  67 NW6       30.15F                  
BAY BRIDGE APT   N/A     36  30  80 CALM      30.17F                  
LEONARDTOWN    CLOUDY    36  28  75 CALM      30.17F                  
DOVER          MOSUNNY   38  34  85 N8        30.16F                  
GEORGETOWN     MOSUNNY   36  26  67 N8        30.15F                  
EASTON         MOSUNNY   37  30  75 N5        30.20F                  
CAMBRIDGE      MOSUNNY   36  30  80 N6        30.15F                  
SALISBURY      CLOUDY    37  27  67 N8        30.12F                  
OCEAN CITY     CLOUDY    37  31  78 N8        30.12F                  
WALLOPS ISLAND FAIR      37  24  59 N6        30.13F                  
ACCOMACK*      FAIR      36  23  60 N5        30.13S                  
$$

NCZ012>017-030>032-071600-
NORTH CENTRAL AND EASTERN NORTH CAROLINA
  
CITY           SKY/WX    TMP DP  RH WIND       PRES   REMARKS
ROANOKE RAPIDS PTSUNNY   36  28  75 NE8       30.08F                  
RALEIGH        CLOUDY    38  23  55 NE13      30.07F                  
ELIZABETH CITY CLOUDY    43  32  65 N21G29    30.04F                  
AHOSKIE*       CLOUDY    37  29  72 N10       30.08F                  
EDENTON*       CLOUDY    41  32  69 N10       30.05S                  
CURRITUCK*     CLOUDY    44  32  64 NE16G24   30.06F                  
KILL DEVIL HLS DRIZZLE   45  39  78 N13G20    30.01S                  
MANTEO         DRIZZLE   45  41  87 NE16G25   30.01F                  
CAPE HATTERAS  RAIN      47  45  93 NE16G29   29.91F                  
TARBORO*       LGT RAIN  35  33  91 N6        30.08F                  
GOLDSBORO      LGT RAIN  34  34 100 N15G21    30.02F WCI  24          
WASHINGTON     LGT RAIN  36  32  87 N12       30.02F                  
GREENVILLE     LGT RAIN  36  34  93 N13       30.06F                  
NEW BERN       LGT RAIN  37  32  82 N13       30.00F                  
WILMINGTON     RAIN      36  32  85 N20G28    29.89F FOG              
$$

VAZ048-071600-
ELSEWHERE
  
CITY           SKY/WX    TMP DP  RH WIND       PRES   REMARKS
HARRISBURG PA  MOSUNNY   33  24  69 SE3       30.17F                  
BALTIMORE      PTSUNNY   33  26  75 NW3       30.17S                  
ANNAPOLIS      CLOUDY    35  27  72 NW7       30.16F                  
ANDREWS AFB    FAIR      36  27  70 N8        30.15S                  
PHILADELPHIA   PTSUNNY   36  25  64 SW3       30.20S                  
HENDERSON NC   CLOUDY    36  24  62 N6        30.08F                  
GREENSBORO     CLOUDY    38  19  46 N12       30.07F                  
ROCKY MOUNT    LGT RAIN  34  30  85 N10       30.07F FOG              
$$

VAZ100-071600-
MARINE
  
STATION/POSITION TIME  TEMP    WIND        PRES    WAVE   SWELL
                       AIR SEA DIR/SP/G            HT/PER HT/PER
                 (UTC) (F)     (DEG/KT/KT) (MB)    (FT/S) (FT/S)
BRANDYWINE LGT   1400   37     360/ 10/ 12 1022.1F
CAPE MAY NJ      1400   38 42  360/  5/  8 1021.9R
LEWES DE         1400   38 42   10/  8/  9 1021.7F
15NM E FENWICK I 1450   41 45              1020.3F   2/10
OCEAN-CITY-INLET 1400   37 41   20/  5/  6 1020.7F
WACHAPREAGUE VA  1400   37 43   20/  5/  9 1020.4F
THOMAS POINT MD  1500   34      20/  8     1022.3F
GOOSES REEF MD   1500   38 39   10/ 10/ 10 1022.3F   0
COVE POINT MD    1400   36      20/  8/  9 1022.3R
SOLOMONS ISLAND  1400   35 41  330/  2/  3   N/A
BISHOPS HEAD MD  1400   36 40  350/  4/  7 1020.6R
POTOMAC MD       1500   39 40  360/  6/  8 1019.9F   0
CAMBRIDGE MD     1400   35 40  350/  4/  5 1021.0F
LEWISETTA VA     1400   36 43   10/  7/  8 1021.3R
RAPPAHANNOCK LGT 1400           30/ 15/ 16 1020.7F
STINGRAY PT      1500   39 42   40/ 12/ 16 1020.4F   2/ 3
YORK RVR RNG VA  1400   40      40/ 15/ 18 1019.5F
YORKTOWN VA      1400   37 43   10/  7/  8 1020.1F
JAMESTOWN VA     1500   37 44   40/  4/ 10   N/A     0
DOMINION TERM VA 1400   40      30/  6/ 14 1019.3F
KIPTOPEKE VA     1400      42   20/  8/ 10   N/A
CHES BAY BRIDGE  1400   40 43  360/ 16/ 20 1018.3F
CAPE HENRY VA    1400   41      30/ 21/ 25   N/A
CHESAPEAKE LGHT  1400   42      30/ 24/ 25 1018.7F
WILLOUBY STN VA  1400   40      30/ 19/ 21 1027.5S
CAPE HENRY BUOY  1428      46                N/A     5/ 5   2/11
1ST LANDING BUOY 1500      43                N/A     3/ 3
CAPE CHARLES BUO 1426      45                N/A     4/ 4   2/10
OFFSHORE WE BUOY 1421      49                N/A     6/ 5   3/11
64NM E OF VA BCH 1450   50 54   40/ 23/ 27 1016.6R   7/ 5   3/10
DUCK PIER NC     1400   45 44   20/ 23/ 27 1016.6F
44100 DUCK FRF   1424      47                N/A     7/ 6   2/11
44056 DUCK FRF   1411      44                N/A     6/ 6   2/11
OREGON INLET NC  1400   46 46   10/ 14/ 22 1016.0R
HATTERAS NC      1400   46 48   10/ 26/ 33 1012.9F
DIAMOND SHLS NC  1450   56 70   30/ 31/ 37 1010.5F  10/ 7   3/11
$$
  

Return to Home page


Western Regional Climate Center, wrcc@dri.edu